Regional Weather Roundup
Issued by NWS

Home | Current Version | Previous Version | Graphics & Text | Print | Product List | Glossary On
Versions: 1 2 3 4 5 6 7 8 9 10 11 12 13 14 15 16 17 18 19 20 21 22 23 24 25 26 27 28 29 30 31 32 33 34 35 36 37 38 39 40 41 42 43 44 45 46 47 48 49 50
000
ASUS43 KOAX 302202
RWRNE

WEATHER ROUNDUP FOR NEBRASKA
NATIONAL WEATHER SERVICE OMAHA NE
500 PM CDT SUN AUG 30 2015

NOTES: SATELLITE DATA IS BEING USED TO AUGMENT CLOUD COVER ABOVE
       12000 FEET.
       "FAIR" INDICATES FEW OR NO CLOUDS BELOW 12,000 FEET WITH NO
       SIGNIFICANT WEATHER AND/OR OBSTRUCTIONS TO VISIBILITY.

  * THESE STATIONS DO NOT REPORT WEATHER SUCH AS RAIN...SNOW OR FOG.

NEZ001>004-019>022-054>056-302300-
NEBRASKA PANHANDLE

CITY           SKY/WX    TMP DP  RH WIND       PRES   REMARKS
SCOTTSBLUFF    SUNNY     97  47  18 E12       29.86F HX  93
ALLIANCE       SUNNY     98  39  13 SW15      29.87F HX  93
CHADRON        SUNNY    102  38  11 S9G16     29.77F HX  96
KIMBALL        SUNNY     94  38  14 S6        29.93F
SIDNEY         SUNNY     98  35  11 SW9G22    29.93F HX  93
$$

NEZ057>060-069>072-079>082-302300-
SOUTHWEST NEBRASKA

CITY           SKY/WX    TMP DP  RH WIND       PRES   REMARKS
NORTH PLATTE   SUNNY     92  41  17 S14G26    29.91F
IMPERIAL       SUNNY     95  39  14 S18G25    29.93F HX  91
LEXINGTON      SUNNY     89  58  35 S16       29.95F
MC COOK        SUNNY     96  38  13 S17       29.92F HX  91
OGALLALA       SUNNY     95  45  18 S18G25    29.91F HX  91
$$

NEZ005>010-023>029-035>040-094-302300-
NORTH CENTRAL NEBRASKA

CITY           SKY/WX    TMP DP  RH WIND       PRES   REMARKS
VALENTINE      CLOUDY    95  44  17 S26G33    29.82F HX  91
AINSWORTH      MOSUNNY   92  46  20 S23       29.86F
BROKEN BOW     SUNNY     87  60  40 S13G25    29.93F
O`NEILL        SUNNY     86  65  48 S18       29.90F
ORD            SUNNY     86  61  42 S15G23    29.92S
THEDFORD       MOSUNNY   94  44  18 S22G31    29.90F HX  90
$$

NEZ041-046>049-061>064-073>077-083>087-302300-
SOUTH CENTRAL NEBRASKA

CITY           SKY/WX    TMP DP  RH WIND       PRES   REMARKS
GRAND ISLAND   SUNNY     79  63  57 S14       29.98S
AURORA         SUNNY     77  65  66 S13       29.98S
HASTINGS       SUNNY     81  62  52 S14       29.98S
HEBRON         SUNNY     78  63  59 S9        29.99F
HOLDREGE       SUNNY     83  60  44 S14G20    29.97F
KEARNEY *      SUNNY     82  63  51 S13       29.96F
YORK           SUNNY     77  66  69 S12       29.98F
$$

NEZ011>018-030>034-042>045-302300-
NORTHEAST NEBRASKA

CITY           SKY/WX    TMP DP  RH WIND       PRES   REMARKS
NORFOLK        SUNNY     77  67  71 S12       29.95F
ALBION         SUNNY     78  64  61 S13       29.96F
BLAIR          FAIR      74  65  74 S12       29.98F
COLUMBUS *     SUNNY    N/A N/A N/A SE9       29.96F
FREMONT        SUNNY     75  65  71 SE12      29.99S
TEKAMAH        SUNNY     75  67  76 S8        29.98F
$$

NEZ050>053-065>068-078-088>093-302300-
SOUTHEAST NEBRASKA

CITY           SKY/WX    TMP DP  RH WIND       PRES   REMARKS
LINCOLN        SUNNY     78  66  66 S10       29.99F
OMAHA EPPLEY   PTSUNNY   76  66  71 S8        29.99F
BEATRICE       SUNNY     77  66  69 S9        30.00S
FALLS CITY     SUNNY     80  69  69 SE5       29.99F
NEBRASKA CITY  MOSUNNY   77  64  64 SW7       30.01S
PLATTSMOUTH    SUNNY     75  66  72 SE8       30.00F
$$

NEZ044-045-051>053-067-302300-
OMAHA AREA

CITY           SKY/WX    TMP DP  RH WIND       PRES   REMARKS
EPPLEY FIELD   PTSUNNY   76  66  71 S8        29.99F
BLAIR          SUNNY     74  65  74 S12       29.98F
FREMONT        SUNNY     75  65  71 SE12      29.99S
MILLARD        MOSUNNY   75  67  74 S7        29.99F
OFFUTT AFB     SUNNY     76  67  72 S9        29.98F
PLATTSMOUTH    SUNNY     75  66  72 SE8       30.00F
WAHOO          FAIR      76  67  73 SE12      29.98F
$$



USA.gov is the U.S. government's official web portal to all federal, state and local government web resources and services.